Home > Weather > Omaha > Past weeks

Flag for U.S.A. Weather for the Past 2 Weeks in Omaha, Nebraska, U.S.A.

Now
31 °F

More clouds than sun.


Feels Like: 31 °F
Forecast: 18 / 38 °F
Wind: No wind

Location: Millard Airport

Current Time: Feb 14, 2016 at 11:30:12 AM

Latest Report: Feb 14, 2016 at 10:55 AM


Visibility: 10 mi

Pressure: 29.86 "Hg

Humidity: 66%

Dew point: 20 °F

Location of OmahaLocation

Historic Weather in Omaha — Graph

°F

Omaha Temperature Yesterday

Maximum temperature yesterday: 20 °F (at 11:35 PM)
Minimum temperature yesterday: 11 °F (at 6:55 AM)
Average temperature yesterday: 16 °F

High & Low Weather Summary for the Past Weeks

 TemperatureHumidityPressure
High50 °F (Jan 30, 2:55 PM)96% (Feb 5, 10:15 PM)30.64 "Hg (Feb 5, 10:15 PM)
Low11 °F (Feb 13, 6:55 AM)43% (Feb 12, 4:55 PM)29.37 "Hg (Feb 2, 2:15 PM)
Average28 °F73%30.08 "Hg
* Reported Jan 30 10:15 AM — Feb 14 10:15 AM, Omaha, Weather by CustomWeather, © 2016

Note: Actual official high and low records may vary slightly from our data, if they occured in-between our weather recording intervals... More about our weather records

Advertising

Omaha Weather History for the Previous 24 Hours

 ConditionsComfort  
Time TempWeatherWind HumidityBarometerVisibility
10:15 AM
Sun, Feb 14
28 °FMostly cloudy.No wind63%29.86 "Hg10 mi
9:55 AM27 °FOvercast.6 mph61%29.87 "Hg10 mi
9:15 AM25 °FOvercast.7 mph60%29.88 "Hg10 mi
8:55 AM24 °FOvercast.7 mph62%29.89 "Hg10 mi
8:35 AM24 °FLight snow. Overcast.7 mph62%29.90 "Hg10 mi
8:15 AM24 °FOvercast.7 mph59%29.91 "Hg10 mi
7:55 AM23 °FOvercast.8 mph59%29.91 "Hg10 mi
7:35 AM23 °FOvercast.7 mph59%29.91 "Hg10 mi
7:15 AM23 °FOvercast.9 mph59%29.91 "Hg10 mi
6:55 AM23 °FOvercast.8 mph58%29.92 "Hg10 mi
6:35 AM23 °FOvercast.10 mph57%29.92 "Hg10 mi
6:15 AM22 °FOvercast.12 mph55%29.92 "Hg10 mi
5:55 AM22 °FOvercast.13 mph56%29.93 "Hg10 mi
5:35 AM22 °FOvercast.10 mph55%29.94 "Hg10 mi
5:15 AM22 °FOvercast.13 mph56%29.95 "Hg10 mi
4:55 AM22 °FOvercast.13 mph55%29.96 "Hg10 mi
4:35 AM22 °FOvercast.14 mph54%29.97 "Hg10 mi
4:15 AM21 °FOvercast.14 mph55%29.98 "Hg10 mi
3:55 AM21 °FOvercast.14 mph55%29.99 "Hg10 mi
3:15 AM21 °FOvercast.12 mph54%30.03 "Hg10 mi
2:55 AM21 °FLight snow. Overcast.16 mph55%30.03 "Hg10 mi
2:35 AM21 °FOvercast.16 mph53%30.05 "Hg10 mi
2:15 AM20 °FOvercast.17 mph54%30.06 "Hg10 mi
1:35 AM20 °FOvercast.15 mph53%30.09 "Hg10 mi
1:15 AM20 °FOvercast.10 mph53%30.11 "Hg10 mi
12:55 AM20 °FPassing clouds.14 mph51%30.11 "Hg10 mi
12:35 AM20 °FPassing clouds.15 mph52%30.11 "Hg10 mi
12:15 AM20 °FOvercast.16 mph51%30.13 "Hg10 mi
11:55 PM
Sat, Feb 13
20 °FMostly cloudy.16 mph50%30.14 "Hg10 mi
11:35 PM20 °FOvercast.15 mph51%30.15 "Hg10 mi
11:15 PM20 °FOvercast.16 mph52%30.15 "Hg10 mi
10:55 PM20 °FOvercast.10 mph53%30.17 "Hg10 mi
10:15 PM20 °FOvercast.12 mph50%30.18 "Hg10 mi
9:55 PM20 °FOvercast.14 mph52%30.20 "Hg10 mi
9:15 PM19 °FOvercast.14 mph51%30.22 "Hg10 mi
8:55 PM19 °FOvercast.10 mph54%30.23 "Hg10 mi
8:15 PM19 °FOvercast.14 mph51%30.25 "Hg10 mi
7:35 PM19 °FOvercast.13 mph49%30.24 "Hg10 mi
7:15 PM19 °FOvercast.14 mph50%30.26 "Hg10 mi
6:55 PM19 °FOvercast.16 mph48%30.26 "Hg10 mi
6:15 PM19 °FOvercast.15 mph51%30.28 "Hg10 mi
5:55 PM19 °FOvercast.15 mph51%30.29 "Hg10 mi
5:15 PM19 °FOvercast.10 mph50%30.31 "Hg10 mi
4:55 PM19 °FOvercast.8 mph51%30.32 "Hg10 mi
4:35 PM19 °FOvercast.10 mph50%30.33 "Hg10 mi
4:15 PM19 °FOvercast.15 mph49%30.32 "Hg10 mi
3:35 PM19 °FOvercast.14 mph54%30.34 "Hg10 mi
2:55 PM19 °FOvercast.12 mph53%30.37 "Hg10 mi
2:15 PM18 °FOvercast.12 mph54%30.40 "Hg10 mi
1:55 PM18 °FOvercast.12 mph57%30.42 "Hg10 mi
1:35 PM17 °FOvercast.12 mph56%30.43 "Hg10 mi
1:15 PM17 °FOvercast.10 mph57%30.45 "Hg10 mi
12:55 PM17 °FOvercast.10 mph57%30.47 "Hg10 mi
12:35 PM16 °FOvercast.7 mph58%30.49 "Hg10 mi
12:15 PM16 °FOvercast.7 mph59%30.51 "Hg10 mi
11:55 AM16 °FOvercast.9 mph61%30.52 "Hg10 mi
11:35 AM15 °FOvercast.7 mph62%30.53 "Hg10 mi
11:15 AM15 °FOvercast.12 mph62%30.54 "Hg10 mi
Weather by CustomWeather, © 2016

See weather overviewHow to use our weather pages